sat.trackr.live / text

‹ back to catalog

STARLINK-34935

NORAD 65277 · 2025-184E

PAYLOAD ACTIVE UNKNOWN

§ Identity

Operator
Country
US
Launch date
2025-08-22
Launch site
AFWTR
Launch vehicle
Mass (kg)
RCS (m²)

Purposes: comms

External: N2YO · Heavens-Above · Gunter

§ Orbital elements

Epoch: 2026-05-25T02:44:06.738432Z

Period
95.64 min
Inclination
97.4501°
Eccentricity
0.0002278
Mean motion
15.05655195 rev/d
Perigee alt
547.9 km
Apogee alt
551.1 km
Semi-major
6,927.6 km
B*
1.4872e-4
RAAN
197.6744°
Arg perigee
142.2439°
Mean anomaly
217.8948°
Rev number
4,280

§ Raw data

STARLINK-349351 65277U 25184E   26145.11396688  .00002088  00000+0  14872-3 0  99992 65277  97.4501 197.6744 0002278 142.2439 217.8948 15.05655195 42802

JSON: /api/v1/satellites/65277 · /tle

For live sub-satellite position, see the globe view (requires WebGL).

§ Visibility from observer

Set your observer location to see the next 7 days of passes ≥ 10°. The values pass through the URL so the page stays shareable.

No JS? Fill the form by hand. The geolocation button needs JavaScript.